TimeCST,TemperatureF,Dew PointF,Humidity,Sea Level PressureIn,VisibilityMPH,Wind Direction,Wind SpeedMPH,Gust SpeedMPH,PrecipitationIn,Events,Conditions,WindDirDegrees,DateUTC
12:53 AM,39.0,30.0,70,29.95,10.0,SSE,8.1,-,N/A,,Clear,160,2012-11-21 06:53:00
1:53 AM,37.9,30.0,73,29.95,10.0,South,4.6,-,N/A,,Clear,190,2012-11-21 07:53:00
2:53 AM,39.0,30.0,70,29.94,10.0,SSW,3.5,-,N/A,,Clear,210,2012-11-21 08:53:00
3:53 AM,37.9,30.0,73,29.94,10.0,SSW,4.6,-,N/A,,Clear,210,2012-11-21 09:53:00
4:53 AM,35.1,28.9,78,29.94,10.0,SSW,4.6,-,N/A,,Clear,210,2012-11-21 10:53:00
5:53 AM,35.1,30.0,82,29.95,10.0,SW,9.2,-,N/A,,Clear,220,2012-11-21 11:53:00
6:53 AM,37.0,30.9,79,29.94,10.0,SW,4.6,-,N/A,,Clear,220,2012-11-21 12:53:00
7:53 AM,36.0,30.9,82,29.95,10.0,Calm,Calm,-,N/A,,Clear,0,2012-11-21 13:53:00
8:53 AM,39.9,33.1,77,29.94,10.0,South,3.5,-,N/A,,Clear,180,2012-11-21 14:53:00
9:53 AM,45.0,34.0,65,29.92,10.0,Calm,Calm,-,N/A,,Clear,0,2012-11-21 15:53:00
10:53 AM,51.1,36.0,56,29.91,10.0,South,4.6,-,N/A,,Clear,170,2012-11-21 16:53:00
11:53 AM,55.0,36.0,49,29.88,10.0,South,5.8,-,N/A,,Clear,170,2012-11-21 17:53:00
12:53 PM,55.9,36.0,47,29.85,10.0,SSE,8.1,-,N/A,,Clear,150,2012-11-21 18:53:00
1:53 PM,59.0,35.1,41,29.82,10.0,SE,10.4,-,N/A,,Clear,140,2012-11-21 19:53:00
2:53 PM,59.0,35.1,41,29.79,10.0,SSE,15.0,-,N/A,,Clear,150,2012-11-21 20:53:00
3:53 PM,55.0,37.0,51,29.77,10.0,SE,12.7,-,N/A,,Clear,130,2012-11-21 21:53:00
4:53 PM,51.1,37.9,61,29.76,10.0,SE,10.4,-,N/A,,Clear,130,2012-11-21 22:53:00
5:53 PM,48.9,37.0,64,29.74,10.0,SE,11.5,-,N/A,,Clear,140,2012-11-21 23:53:00
6:53 PM,48.0,37.0,66,29.72,10.0,SE,10.4,-,N/A,,Clear,130,2012-11-22 00:53:00
7:53 PM,46.9,36.0,66,29.69,10.0,SSE,10.4,-,N/A,,Clear,150,2012-11-22 01:53:00
8:53 PM,46.9,37.0,68,29.66,10.0,SSE,8.1,-,N/A,,Clear,160,2012-11-22 02:53:00
9:53 PM,54.0,37.9,55,29.63,10.0,South,12.7,-,N/A,,Clear,190,2012-11-22 03:53:00
10:53 PM,51.1,37.9,61,29.61,10.0,South,12.7,-,N/A,,Clear,190,2012-11-22 04:53:00
11:53 PM,50.0,39.0,66,29.59,10.0,SSW,12.7,-,N/A,,Clear,200,2012-11-22 05:53:00